Regional Weather Roundup
Issued by NWS

Home | Current Version | Previous Version | Text Only | Print | Product List | Glossary Off
Versions: 1 2 3 4 5 6 7 8 9 10 11 12 13 14 15 16 17 18 19 20 21 22 23 24 25 26 27 28 29 30 31 32 33 34 35 36 37 38 39 40 41 42 43 44 45 46 47 48 49 50

000
ASUS43 KLSX 071507
RWRMO

WEATHER SUMMARY FOR MISSOURI
NATIONAL WEATHER SERVICE SPRINGFIELD MO
900 AM CST SUN FEB 07 2016

NOTE: "FAIR" INDICATES FEW OR NO CLOUDS BELOW 12,000 FEET WITH NO
       SIGNIFICANT WEATHER AND/OR OBSTRUCTIONS TO VISIBILITY.
       CURRENT SKY AND/OR WEATHER CONDITIONS ARE NOT AVAILABLE FOR
       CHILLICOTHE AND FARMINGTON.

MOZ001>031-035>038-043-044-053-054-071600-
...NORTHERN AND WESTERN MISSOURI...

CITY           SKY/WX    TMP DP  RH WIND       PRES   REMARKS
KANSAS CTY INT CLOUDY    39  28  64 W8        30.02R
KANSAS C DTWN  CLOUDY    41  28  60 SW5       30.03R
LEE`S SUMMIT   CLOUDY    40  27  59 W9        30.03R
ST JOSEPH      MOSUNNY   41  28  60 NW13      30.04R
CHILLICOTHE      N/A     40  29  64 VRB6      29.98R
KIRKSVILLE     PTSUNNY   39  26  59 W10       29.92R

$$
MOZ066>068-077>081-088>096-101>105-071600-
...SOUTHWEST MISSOURI...

CITY           SKY/WX    TMP DP  RH WIND       PRES   REMARKS
SPRINGFIELD    MOSUNNY   44  30  57 SW18      30.06F
JOPLIN         PTSUNNY   42  29  59 SW17      30.10F

$$
MOZ032>034-039>042-045>050-055>058-069>072-071600-
...CENTRAL MISSOURI...

CITY           SKY/WX    TMP DP  RH WIND       PRES   REMARKS
COLUMBIA       CLOUDY    44  28  53 W17G24    29.98F
JEFFERSON CITY CLOUDY    44  28  53 SW14G22   30.00F
ROLLA          CLOUDY    41  29  62 SW18      29.99F
SEDALIA        CLOUDY    41  27  57 W15G21    30.01S
WHITEMAN AFB   CLOUDY    41  27  56 W15       30.01R
WARRENSBURG    CLOUDY    39  28  65 SW9       30.03R
OSAGE BEACH    MOSUNNY   45  27  49 SW13G24   30.03S

$$
MOZ051-052-059>065-071600-
...EAST CENTRAL MISSOURI...

CITY           SKY/WX    TMP DP  RH WIND       PRES   REMARKS
ST LOUIS INTL  PTSUNNY   47  27  45 SW17G25   29.99F
SPIRIT OF STL  SUNNY     45  28  51 SW20G26   29.98F
ST CHARLES     MOSUNNY   44  30  57 SW14      29.98F

$$
MOZ072>076-082>087-097>100-106>115-071600-
...SOUTH CENTRAL AND SOUTHEAST MISSOURI...

CITY           SKY/WX    TMP DP  RH WIND       PRES   REMARKS
CAPE GIRARDEAU SUNNY     41  26  55 SW10      30.12F
FARMINGTON     CLOUDY    46  28  49 S10       30.04F
POPLAR BLUFF   SUNNY     39  27  62 SW9       30.13F
WEST PLAINS    SUNNY     43  24  47 SW13      30.09F

$$


USA.gov is the U.S. government's official web portal to all federal, state and local government web resources and services.